Flag for Norway Weather past 2 weeks in Fauske, Norway

Now
39 °F

Passing clouds.


Feels Like: 29 °F
Forecast: 32 / 42 °F
Wind: 21 mph from East

Location: Bodo Vi

Current Time: Oct 23, 2014 at 2:06:57 AM

Latest Report: Oct 23, 2014 at 12:50 AM


Visibility: N/A

Pressure: 29.89 "Hg

Humidity: 65%

Dew point: 28 °F

Location of FauskeLocation

Historic Weather in Fauske — Graph

°F

Fauske temperature yesterday

Maximum temperature yesterday: 39 °F (at 12:50 AM)
Minimum temperature yesterday: 34 °F (at 9:20 PM)
Average temperature yesterday: 38 °F

Past Weeks' High & Low Weather Summary

 TemperatureHumidityPressure
High48 °F (Oct 8, 1:50 PM)100% (Oct 18, 12:50 PM)30.15 "Hg (Oct 18, 12:50 PM)
Low32 °F (Oct 13, 8:20 PM)48% (Oct 22, 4:50 AM)29.39 "Hg (Oct 20, 12:50 AM)
Average40 °F69%29.85 "Hg
* Reported Oct 8 12:20 AM — Oct 23 12:50 AM, Fauske, Weather by CustomWeather, © 2014

Note: Actual official high and low records may vary slightly from our data, if they occured in-between our weather recording intervals... More about our weather records

Advertising

Fauske weather history for previous 24 hours

 ConditionsComfort  
Time TempWeatherWind HumidityBarometerVisibility
12:50 AM
Oct 23
39 °FPassing clouds.21 mph65%29.89 "HgN/A
11:50 PM
Oct 22
37 °FPartly cloudy.30 mph75%29.89 "HgN/A
11:20 PM37 °FLight rain. Partly cloudy.28 mph81%29.89 "HgN/A
10:50 PM36 °FLight rain. Partly cloudy.31 mph87%29.89 "HgN/A
9:50 PM36 °FLight rain. Partly cloudy.29 mph87%29.89 "HgN/A
9:20 PM34 °FLight rain. Partly cloudy.30 mph93%29.89 "HgN/A
8:50 PM36 °FLight rain. Mostly cloudy.26 mph87%29.89 "Hg3 mi
8:20 PM36 °FLight rain. Partly cloudy.23 mph87%29.89 "HgN/A
7:50 PM36 °FLight rain. Partly cloudy.20 mph87%29.89 "HgN/A
7:20 PM36 °FLight rain. Partly cloudy.24 mph87%29.89 "HgN/A
6:50 PM37 °FLight rain. Partly cloudy.25 mph81%29.89 "Hg3 mi
6:20 PM37 °FLight rain. Mostly cloudy.23 mph75%29.86 "HgN/A
5:50 PM39 °FLight rain. Broken clouds.25 mph61%29.86 "Hg3 mi
5:20 PM39 °FScattered showers. Broken clouds.23 mph61%29.86 "HgN/A
4:50 PM39 °FScattered showers. Broken clouds.26 mph56%29.86 "HgN/A
4:20 PM39 °FPartly sunny.29 mph56%29.86 "HgN/A
3:50 PM39 °FBroken clouds.25 mph56%29.86 "HgN/A
3:20 PM37 °FScattered showers. Partly sunny.29 mph56%29.86 "HgN/A
2:50 PM37 °FScattered showers. Broken clouds.24 mph60%29.86 "HgN/A
2:20 PM37 °FScattered showers. Broken clouds.26 mph60%29.86 "HgN/A
1:50 PM37 °FScattered showers. Broken clouds.26 mph56%29.86 "HgN/A
1:20 PM37 °FBroken clouds.29 mph56%29.86 "HgN/A
12:50 PM37 °FBroken clouds.29 mph56%29.86 "HgN/A
12:20 PM39 °FBroken clouds.33 mph56%29.86 "HgN/A
11:50 AM39 °FBroken clouds.30 mph52%29.83 "HgN/A
11:20 AM39 °FBroken clouds.33 mph52%29.83 "HgN/A
10:50 AM39 °FBroken clouds.30 mph56%29.83 "HgN/A
10:20 AM39 °FPartly sunny.35 mph52%29.83 "HgN/A
9:50 AM39 °FPartly sunny.22 mph52%29.83 "HgN/A
9:20 AM37 °FPassing clouds.30 mph48%29.83 "HgN/A
8:50 AM37 °FPassing clouds.31 mph52%29.80 "HgN/A
8:20 AM37 °FPassing clouds.35 mph52%29.80 "HgN/A
7:50 AM37 °FPassing clouds.33 mph56%29.80 "HgN/A
7:20 AM37 °FPassing clouds.35 mph52%29.80 "HgN/A
6:50 AM37 °FPassing clouds.35 mph52%29.80 "HgN/A
6:20 AM37 °FClear.31 mph52%29.80 "Hg10 mi
5:50 AM37 °FClear.36 mph52%29.77 "Hg10 mi
5:20 AM37 °FClear.33 mph52%29.77 "Hg10 mi
4:50 AM39 °FClear.28 mph48%29.77 "Hg10 mi
3:50 AM37 °FClear.25 mph52%29.80 "Hg10 mi
2:50 AM37 °FClear.31 mph52%29.77 "Hg10 mi
Weather by CustomWeather, © 2014

See weather overviewHow to use our weather pages